This is the latest recevied weather packets stored in our database for station/object KC7UNY-13. If no packets are shown the sender has not sent any weather packets the latest 10 day(s).
| Time | Temp. | Humidity | Pressure | Rain* | Wind** | Luminosity | Snow |
|---|---|---|---|---|---|---|---|
| 1777436534 | 22.78° C | 27% | 1014.3 hPa | 0 mm | - | 0 W/m² | - |
| 1777436230 | 22.22° C | 28% | 1014.1 hPa | 0 mm | - | 0 W/m² | - |
| 1777435927 | 22.22° C | 27% | 1014.2 hPa | 0 mm | - | 0 W/m² | - |
| 1777435623 | 22.78° C | 31% | 1014.1 hPa | 0 mm | - | 0 W/m² | - |
| 1777435318 | 22.78° C | 26% | 1014.2 hPa | 0 mm | - | 0 W/m² | - |
| 1777435017 | 22.78° C | 27% | 1014.1 hPa | 0 mm | - | 0 W/m² | - |
| 1777434714 | 22.22° C | 28% | 1013.9 hPa | 0 mm | - | 0 W/m² | - |
| 1777434407 | 22.78° C | 28% | 1014.2 hPa | 0 mm | - | 0 W/m² | - |
| 1777434106 | 22.78° C | 27% | 1013.6 hPa | 0 mm | - | 0 W/m² | - |
| 1777433803 | 22.78° C | 27% | 1014.1 hPa | 0 mm | - | 0 W/m² | - |
| 1777433498 | 23.33° C | 26% | 1013.7 hPa | 0 mm | - | 0 W/m² | - |
| 1777433194 | 23.33° C | 26% | 1013.6 hPa | 0 mm | - | 0 W/m² | - |
| 1777432891 | 23.33° C | 27% | 1013.7 hPa | 0 mm | - | 0 W/m² | - |
| 1777432590 | 23.89° C | 27% | 1013.5 hPa | 0 mm | - | 0 W/m² | - |
| 1777432287 | 23.89° C | 26% | 1013.6 hPa | 0 mm | - | 0 W/m² | - |
| 1777431986 | 23.33° C | 23% | 1013.5 hPa | 0 mm | - | 0 W/m² | - |
| 1777431683 | 23.33° C | 25% | 1013.5 hPa | 0 mm | - | 0 W/m² | - |
| 1777431379 | 23.33° C | 24% | 1013.5 hPa | 0 mm | - | 0 W/m² | - |
| 1777431075 | 23.89° C | 23% | 1013 hPa | 0 mm | - | 0 W/m² | - |
| 1777430771 | 23.89° C | 23% | 1013.4 hPa | 0 mm | - | 0 W/m² | - |
| 1777430468 | 24.44° C | 22% | 1013 hPa | 0 mm | - | 0 W/m² | - |
| 1777430163 | 25° C | 21% | 1013.2 hPa | 0 mm | - | 0 W/m² | - |
| 1777429858 | 25° C | 23% | 1013 hPa | 0 mm | - | 0 W/m² | - |
| 1777429549 | 25.56° C | 23% | 1012.9 hPa | 0 mm | - | 0 W/m² | - |
| 1777429245 | 25.56° C | 20% | 1012.8 hPa | 0 mm | - | 0 W/m² | - |
* Rain latest hour (hover to see other rain measurements)
** Current wind speed in m/s (hover to see current wind gust speed)